When you browse on this site, cookies collect data to enhance your experience and personalize the content and advertising you see.
Visit our Privacy Policy to learn more. By continuing to use the site, you agree to this use of cookies and data.
  • In Slovakia
  • List of Countries
  • For 7 days
  • Water Temperature
  • Weather Map
  • Weather Widgets
  • user-avatar
    Login

    Hourly Weather Proletarka

    Today, 31 March, Tuesday

    Time Temperature Precipitation Wind Pressure Humidity
    00:00 -9°C° 0 mm 2 mps 756 mmHg 87%
    01:00 -9°C° 0 mm 2 mps 756 mmHg 87%
    02:00 -10°C° 0 mm 2 mps 756 mmHg 87%
    03:00 -10°C° 0 mm 2 mps 755 mmHg 88%
    04:00 -10°C° 0 mm 1 mps 755 mmHg 88%
    05:00 -10°C° 0 mm 1 mps 755 mmHg 89%
    06:00 -9°C° 0 mm 1 mps 755 mmHg 86%
    07:00 -8°C° 0 mm 2 mps 755 mmHg 83%
    08:00 -7°C° 0 mm 2 mps 755 mmHg 80%
    09:00 -6°C° 0 mm 2 mps 754 mmHg 74%
    10:00 -4°C° 0 mm 2 mps 753 mmHg 67%
    11:00 -4°C° 0 mm 3 mps 752 mmHg 60%
    12:00 -4°C° 0 mm 3 mps 751 mmHg 59%
    13:00 -4°C° 0 mm 4 mps 751 mmHg 57%
    14:00 -4°C° 0 mm 4 mps 750 mmHg 56%
    15:00 -4°C° 0 mm 4 mps 749 mmHg 58%
    16:00 -4°C° 0 mm 4 mps 747 mmHg 61%
    17:00 -5°C° 0 mm 4 mps 746 mmHg 64%
    18:00 -5°C° 0 mm 4 mps 745 mmHg 67%
    19:00 -7°C° 0 mm 5 mps 744 mmHg 71%
    20:00 -7°C° 0 mm 5 mps 743 mmHg 75%
    21:00 -7°C° 0.2 mm 5 mps 742 mmHg 81%
    22:00 -7°C° 0.2 mm 5 mps 740 mmHg 87%
    23:00 -7°C° 0.2 mm 5 mps 739 mmHg 94%

    Tomorrow, 1 April, Wednesday

    Time Temperature Precipitation Wind Pressure Humidity
    00:00 -6°C° 0.5 mm 5 mps 738 mmHg 94%
    01:00 -6°C° 0.5 mm 5 mps 737 mmHg 94%
    02:00 -5°C° 0.5 mm 4 mps 736 mmHg 94%
    03:00 -5°C° 0.4 mm 4 mps 736 mmHg 94%
    04:00 -5°C° 0.4 mm 4 mps 735 mmHg 95%
    05:00 -5°C° 0.4 mm 3 mps 734 mmHg 95%
    06:00 -4°C° 0.3 mm 3 mps 734 mmHg 94%
    07:00 -2°C° 0.3 mm 3 mps 734 mmHg 93%
    08:00 -1°C° 0.3 mm 3 mps 733 mmHg 92%
    09:00 -1°C° 0.2 mm 3 mps 733 mmHg 90%
    10:00 0°C° 0.2 mm 3 mps 733 mmHg 87%
    11:00 0°C° 0.2 mm 3 mps 732 mmHg 84%
    12:00 +2°C° 0.2 mm 2 mps 732 mmHg 81%
    13:00 +2°C° 0.2 mm 2 mps 732 mmHg 78%
    14:00 +2°C° 0.2 mm 2 mps 732 mmHg 74%
    15:00 +2°C° 0.1 mm 2 mps 732 mmHg 77%
    16:00 +1°C° 0.1 mm 2 mps 731 mmHg 81%
    17:00 +1°C° 0.1 mm 2 mps 731 mmHg 84%
    18:00 +1°C° 0 mm 1 mps 731 mmHg 88%
    19:00 0°C° 0 mm 1 mps 731 mmHg 92%
    20:00 -1°C° 0 mm 1 mps 731 mmHg 97%
    21:00 -1°C° 0.1 mm 1 mps 731 mmHg 96%
    22:00 -3°C° 0.1 mm 2 mps 731 mmHg 96%
    23:00 -3°C° 0.1 mm 2 mps 731 mmHg 95%

    Day after tomorrow, 2 April, Thursday

    Time Temperature Precipitation Wind Pressure Humidity
    00:00 -3°C° 0 mm 2 mps 731 mmHg 95%
    01:00 -4°C° 0 mm 2 mps 732 mmHg 94%
    02:00 -5°C° 0 mm 3 mps 732 mmHg 94%
    03:00 -5°C° 0 mm 3 mps 732 mmHg 93%
    04:00 -6°C° 0 mm 3 mps 732 mmHg 92%
    05:00 -6°C° 0 mm 3 mps 732 mmHg 91%
    06:00 -6°C° 0 mm 3 mps 733 mmHg 89%
    07:00 -6°C° 0 mm 3 mps 733 mmHg 86%
    08:00 -6°C° 0 mm 3 mps 733 mmHg 84%
    09:00 -5°C° 0 mm 3 mps 733 mmHg 81%
    10:00 -4°C° 0 mm 3 mps 733 mmHg 79%
    11:00 -2°C° 0 mm 3 mps 734 mmHg 76%
    12:00 -2°C° 0 mm 3 mps 734 mmHg 75%
    13:00 -2°C° 0 mm 3 mps 734 mmHg 74%
    14:00 -1°C° 0 mm 3 mps 734 mmHg 73%
    15:00 -3°C° 0.2 mm 4 mps 733 mmHg 80%
    16:00 -3°C° 0.2 mm 4 mps 732 mmHg 87%
    17:00 -4°C° 0.2 mm 4 mps 732 mmHg 95%
    18:00 -3°C° 0.5 mm 4 mps 731 mmHg 95%
    19:00 -2°C° 0.5 mm 5 mps 731 mmHg 95%
    20:00 -1°C° 0.5 mm 5 mps 730 mmHg 96%
    21:00 -1°C° 0.1 mm 5 mps 729 mmHg 96%
    22:00 -1°C° 0.1 mm 5 mps 729 mmHg 96%
    23:00 -2°C° 0.1 mm 6 mps 728 mmHg 96%

    3 April, Friday

    Time Temperature Precipitation Wind Pressure Humidity
    00:00 -2°C° 0.2 mm 6 mps 727 mmHg 96%
    01:00 -2°C° 0.2 mm 6 mps 727 mmHg 95%
    02:00 -2°C° 0.2 mm 6 mps 726 mmHg 94%
    03:00 -2°C° 0.1 mm 6 mps 726 mmHg 95%
    04:00 -2°C° 0.1 mm 6 mps 725 mmHg 95%
    05:00 -2°C° 0.1 mm 7 mps 725 mmHg 95%
    06:00 -2°C° 0.3 mm 6 mps 725 mmHg 94%
    07:00 -1°C° 0.3 mm 5 mps 725 mmHg 92%
    08:00 -1°C° 0.3 mm 4 mps 725 mmHg 90%
    09:00 -1°C° 0.3 mm 4 mps 725 mmHg 88%
    10:00 -1°C° 0.3 mm 4 mps 725 mmHg 87%
    11:00 0°C° 0.3 mm 4 mps 725 mmHg 85%
    12:00 0°C° 0.2 mm 5 mps 725 mmHg 81%
    13:00 +1°C° 0.2 mm 5 mps 725 mmHg 76%
    14:00 +1°C° 0.2 mm 6 mps 725 mmHg 71%
    15:00 +1°C° 0.1 mm 5 mps 725 mmHg 73%
    16:00 0°C° 0.1 mm 4 mps 725 mmHg 75%
    17:00 +1°C° 0.1 mm 3 mps 725 mmHg 77%
    18:00 0°C° 0 mm 3 mps 725 mmHg 79%
    19:00 -1°C° 0 mm 3 mps 726 mmHg 82%
    20:00 -3°C° 0 mm 4 mps 727 mmHg 84%
    21:00 -3°C° 0 mm 4 mps 728 mmHg 84%
    22:00 -3°C° 0 mm 4 mps 729 mmHg 84%
    23:00 -3°C° 0 mm 4 mps 730 mmHg 84%

    4 April, Saturday

    Time Temperature Precipitation Wind Pressure Humidity
    00:00 -4°C° 0 mm 4 mps 731 mmHg 84%
    01:00 -4°C° 0 mm 4 mps 732 mmHg 83%
    02:00 -5°C° 0 mm 4 mps 733 mmHg 83%
    03:00 -5°C° 0 mm 4 mps 733 mmHg 83%
    04:00 -6°C° 0 mm 3 mps 734 mmHg 83%
    05:00 -6°C° 0 mm 3 mps 735 mmHg 83%
    06:00 -5°C° 0 mm 4 mps 736 mmHg 80%
    07:00 -4°C° 0 mm 4 mps 736 mmHg 76%
    08:00 -4°C° 0 mm 5 mps 737 mmHg 73%
    09:00 -4°C° 0.1 mm 5 mps 737 mmHg 70%
    10:00 -3°C° 0.1 mm 6 mps 737 mmHg 66%
    11:00 -3°C° 0.1 mm 6 mps 738 mmHg 63%
    12:00 -3°C° 0.2 mm 6 mps 738 mmHg 61%
    13:00 -2°C° 0.2 mm 6 mps 739 mmHg 60%
    14:00 -2°C° 0.2 mm 6 mps 740 mmHg 58%
    15:00 -2°C° 0.1 mm 6 mps 740 mmHg 59%
    16:00 -1°C° 0.1 mm 5 mps 741 mmHg 60%
    17:00 -1°C° 0.1 mm 4 mps 742 mmHg 61%
    18:00 -2°C° 0 mm 4 mps 742 mmHg 63%
    19:00 -3°C° 0 mm 4 mps 743 mmHg 65%
    20:00 -4°C° 0 mm 4 mps 744 mmHg 67%
    21:00 -4°C° 0 mm 4 mps 744 mmHg 66%
    22:00 -6°C° 0 mm 5 mps 745 mmHg 65%
    23:00 -6°C° 0 mm 5 mps 745 mmHg 64%

    5 April, Sunday

    Time Temperature Precipitation Wind Pressure Humidity
    00:00 -6°C° 0 mm 5 mps 746 mmHg 67%
    01:00 -6°C° 0 mm 5 mps 746 mmHg 70%
    02:00 -6°C° 0 mm 6 mps 747 mmHg 73%
    03:00 -6°C° 0 mm 6 mps 747 mmHg 69%
    04:00 -6°C° 0 mm 6 mps 748 mmHg 65%
    05:00 -6°C° 0 mm 6 mps 749 mmHg 61%
    06:00 -7°C° 0 mm 7 mps 750 mmHg 59%
    07:00 -6°C° 0 mm 7 mps 751 mmHg 57%
    08:00 -6°C° 0 mm 7 mps 752 mmHg 55%
    09:00 -4°C° 0 mm 7 mps 753 mmHg 55%
    10:00 -3°C° 0 mm 7 mps 753 mmHg 54%
    11:00 -3°C° 0 mm 7 mps 754 mmHg 54%
    12:00 -2°C° 0 mm 6 mps 755 mmHg 54%
    13:00 -2°C° 0 mm 6 mps 756 mmHg 54%
    14:00 -2°C° 0 mm 6 mps 757 mmHg 53%
    15:00 -1°C° 0 mm 5 mps 757 mmHg 55%
    16:00 -1°C° 0 mm 4 mps 758 mmHg 56%
    17:00 -2°C° 0 mm 4 mps 759 mmHg 57%
    18:00 -2°C° 0 mm 3 mps 759 mmHg 61%
    19:00 -3°C° 0 mm 2 mps 760 mmHg 64%
    20:00 -3°C° 0 mm 2 mps 760 mmHg 68%
    21:00 -4°C° 0 mm 2 mps 760 mmHg 69%
    22:00 -2°C° 0 mm 1 mps 761 mmHg 70%
    23:00 -2°C° 0 mm 1 mps 761 mmHg 71%
    Show more